Tracking 18823 objects as of 20-October-2017
HD Live streaming from Space Station
objects crossing your sky now

BREEZE-M DEB

Track BREEZE-M DEB now!
10-day predictions


NORAD ID: 34259
Int'l Code: 2006-006CA
Perigee: 1,128.5 km
Apogee: 14,713.3 km
Inclination: 50.9 °
Period: 283.4 minutes
Semi major axis: 14291 km
RCS: 0.2413 m2 (medium)
Launch date: February 28, 2006
Source: Commonwealth of Independent States (former USSR) (CIS)
Launch site: TYURATAM MISSILE AND SPACE COMPLEX (TTMTR)

Note: This is SATELLITE DEBRIS
aabbcc
Your satellite tracking list
Your tracking list is empty





NASA's NSSDC Master Catalog

Two Line Element Set (TLE):
1 34259U 06006CA  17292.46184278 -.00000056 +00000-0 +00000-0 0  9998
2 34259 050.9367 279.0335 4752630 332.8424 008.6702 05.08123721216783
Source of the keplerian elements: AFSPC